Location: Godzisko
(49.9648°N, 19.4576°E)
Time: 01:51:58
(UTC+00:00)

Cosmos 2242 Rocket - Pass Details

Date: 20 April 2021
Orbit: 618 x 651 km, 82.5° (Epoch: 07 May)

Event Time Altitude Azimuth Distance (km) Brightness Sun altitude
Exits shadow 00:46:30 40° 139° (SE) 926 4.3 -22.7°
Maximum altitude 00:47:37 50° 94° (E) 792 4.2 -22.6°
Drops below altitude 10° 00:51:53 10° 19° (NNE) 1,996 7.2 -22.2°
Sets 00:54:10 0° 15° (NNE) 2,907 8.2 -22.0°
